Погода в Туркменабате

Погода в Туркменабате : погода сейчас, прогноз погоды и архив. Всё, что Вы хотите узнать о погоде в Туркменабате!

Хотите узнать прогноз погоды в Туркменабате? Тогда Вам сюда: Погода в Туркменабате

Поиск расширенной информации на нашем сайте:

Другие новости

Новости СМИ2

Главная страница сайта

Новости сайта

03.07.2017

Напоминаем, что на нашем специализированном сайте Метеоцентр.Азия вы можете получить высокодетализированные автоматические прогнозы погоды по пунктам России, СНГ и мира в авиационном формате (включающие направление и скорость ветра, видимость, явления погоды, количество и форму облачности, нижнюю и верхнюю границу облачности).


Погода в Туркменабате - сегодня

Время (UTC), дата Ветер
(°,м/с) 
Видим.   Явления Облачность Т
(°С)
Тd
(°С)
f(%) Тe
(°С)
Pmin
(гПа)
dP
(гПа)
Po
(мм)
O2
(г/м3)
Тmin Tmax R s Состояние
почвы
21 21.11.17 140 (ЮВ) 4000 м    ясно 
+5.7 -3.8 50 +5  1016.7  -1.3  745  294           
00 22.11.17 110 (В) 4000 м    ясно 
+5.4 -3.8 51 +4  1015.6  -1  744  294           
03 22.11.17 140 (ЮВ) 10 км    3/0 верхняя 
[Ci fib]
+5.3 -2.9 55 +4  1015.5  -0.1  744  294           
06 22.11.17 140 (ЮВ) 10 км    4/0 верхняя 
[Ci fib]
+12.4 -2.5 35 +12  1024.3  -0.6  743  287  +4.6         
09 22.11.17 110 (В) 10 км    9/0 верхняя 
[Ci fib]
+20.2 -7.1 15 +20  1011.6  -2.5  742  279           
12 22.11.17 140 (ЮВ) 10 км    9/0 средняя 
[Ac und]
+19.3 -6.7 17 +20  1010.7  -0.5  741  280           
15 22.11.17 110 (В) 10 км    9/0 средняя 
[Ac und]
+14.4 -5 26 +14  1010.5  -0.6  741  284    +20.3       
18 22.11.17 140 (ЮВ) 4000 м    9/0 средняя 
[Ac und]
+10.3 -3.8 37 +10  1011.4  0.5  741  288    +20.3       
21 22.11.17 140 (ЮВ) 4000 м    9/0 средняя 
[Ac und]
+11.1 -4.4 33 +11  1010.7  -0.6  741  287           
00 23.11.17 140 (ЮВ) 4000 м    10/0 средняя 
[Ac As]
+11.3 -4.4 33 +11  1010.3  -0.3  740  287           
03 23.11.17 140 (ЮВ) 10 км    10/10 1000 м кучево-дожд. 
[Cb cap]
+11.7 -4.4 32 +11  1010.6  0.2  741  287           
06 23.11.17 160 (Ю) 10 км    ясно 
+17.5 -1.2 28 +18  1010.7  0.6  741  281  +10.1         
09 23.11.17 160 (Ю) 10 км    ясно 
+23.1 -5 15 +23  1009.1  -1.1  740  275           
12 23.11.17 230 (ЮЗ) 10 км    5/0 верхняя 
[Ci sp]
+21.5 -1.4 22 +22  1008.6  -0.6  740  276           
15 23.11.17 110 (В) 4000 м    4/0 верхняя 
[Ci sp]
+14.3 +0.6 39 +15  1009.8  0.6  740  283    +23.7       
18 23.11.17 110 (В) 4000 м    4/0 средняя 
[Ac trans]
+11.9 +0.6 46 +12  1011.1  1.1  741  286    +23.7       
21 23.11.17 200 (Ю) 4000 м    4/0 средняя 
[Ac trans]
+11.8 -3.3 35 +12  1012.1  0.9  742  287           
00 24.11.17 320 (СЗ) 4000 м  слаб. ливневой дождь  10/10 1000 м кучево-дожд. 
[Cb cap]
+10.7 +4 63 +9  1013.8  0.7  743  287           
03 24.11.17 020 (С) 10 км    10/10 1000 м кучево-дожд. 
[Cb cap]
+9.3 +5.1 75 +9  1015  1.1  744  289      0.5     
06 24.11.17 140 (ЮВ) 10 км  {ливн. осадки}  10/10 1000 м кучево-дожд. 
[Cb cap]
+11.1 +5.1 66 +11  1017.3  2.3  746  288  +9.3    0.5     
09 24.11.17 320 (СЗ) 10 км    9/9 1500 м кучево-дожд. 
[Cb cap]
+13.1 +7.1 67 +13  1017.3  0.2  746  286           
12 24.11.17 340 (С) 10 км    8/8 1500 м 
[Sc]
+13.7 +5.9 59 +14  1016.9  -0.3  746  285           
15 24.11.17 тихо ()   4000 м    8/8 1500 м 
[Sc]
+12.1 +7.8 75 +12  1017.5  0.4  746  286    +13.9       
18 24.11.17 050 (СВ) 4000 м    10/10 1500 м 
[Sc]
+9.9 +6.7 80 +10  1017.1  -0.6  745  289    +13.9       
21 24.11.17 360 (С) 4000 м    9/9 1500 м кучево-дожд. 
[Cb cap]
+8.7 +5.6 81 +9  1015.7  -1.3  744  290           
Время (UTC), дата Ветер
(°,м/с) 
Видим.   Явления Облачность Т
(°С)
Тd
(°С)
f(%) Тe
(°С)
Pmin
(гПа)
dP
(гПа)
Po
(мм)
O2
(г/м3)
Тmin Tmax R s Состояние
почвы

Для получения пояснительной информации подведите курсор к названию столбца.

ПОГОДА в Туркменабате - архив

Всё, что Вы хотите узнать о погоде в Туркменабате - удобно и подробно!

Выберите нужную дату (начиная с 1 января 2015* года) и нажмите кнопку "Найти".
Будут отображены архивные сводки погоды по пункту Туркменабат, начиная с указанной даты.


Отображать данные в формате CSV (для использования в таблицах Excel)


Внимание! Наш архив погоды предназначен исключительно для личного некоммерческого использования в познавательных целях. Если Вам необходимы официальные справки о состоянии погоды (для производственных, юридических, коммерческих и т.п. целей), обращайтесь в органы Росгидромета.

*Примечание: данная дата относится к архиву по метеостанциям СССР (Россия, СНГ, Балтия).
Архив по метеостанциям Зарубежной Европы и Азии (кроме Китая) хранится 10 дней, по другим регионам земного шара (Китай, Африка, Америка, Австралия, Океания) - 1 день.

Туркменабат - район местоположения метеостанции


Название, широта, долгота, высота метеостанции:
Туркменабат (Чарджоу) 39.1°ш. 63.6°д. 190 м над ур. моря [Туркменистан]

Дополнительная информация

В oтличие oт бoльшинства пoгoдных сайтoв мы публикуем пoдрoбную метеoинфoрмацию в детальнoм прoфессиoнальнoм фoрмате.

Характеристики температуры и влажнoсти вoздуха измеряются на высoте 2 м в тени вдали oт зданий и деревьев.
Скoрoсть ветра измеряется на высoте 10 м (на урoвне рoста челoвека скoрoсть ветра ниже в 1.5-2 раза). Если метеoстанция нахoдится в гoрoде или в лесу, тo скoрoсть ветра занижена на 2-4 м/с пo сравнению с oткрытым местoм. Скoрoсть ветра над акватoриями крупных рек и oзёр, а также на вершинах хoлмoв на 2-5 м/с выше, чем в oбычных услoвиях.
Атмoсфернoе давление в разных тoчках местнoсти мoжет значительнo oтличаться oт давления на метеoстанции, в зависимoсти oт услoвий рельефа (при пoдъёме на 10 м давление пoнижается примернo на 1 мм рт.ст.).